FO-29
1 24278U 96046B 15071.86752694 .00000043 00000-0 82550-4 0 9990
2 24278 098.5299 053.7337 0349790 320.7278 072.6875 13.53046630917009
SO-33
1 25509U 98061B 15072.15854048 .00001227 00000-0 22814-3 0 9997
2 25509 031.4335 075.9979 0348341 311.4746 045.6458 14.29894669855667
RS-22
1 27939U 03042A 15071.97438948 .00000963 00000-0 18451-3 0 9995
2 27939 097.8311 238.2172 0012775 338.8110 021.2562 14.65856481612096
HO-68
1 36122U 09072B 15072.01996119 -.00000060 00000-0 -43517-4 0 9995
2 36122 100.2088 120.2044 0007697 344.6330 015.4559 13.16324581251809
AO-73
1 39444U 13066AE 15071.88951329 .00002574 00000-0 33791-3 0 9993
2 39444 097.7410 138.1564 0061777 089.8626 270.9665 14.79785368 69175
EO-79
1 40025U 14033R 15071.98716925 .00002805 00000-0 32134-3 0 9994
2 40025 097.9629 332.0942 0014200 134.4701 225.7659 14.86684157 39508
UO-11
1 14781U 84021B 15072.17968558 .00000872 00000-0 11581-3 0 9996
2 14781 097.8140 131.5769 0009279 033.1043 327.0749 14.82215897667801
AO-16
1 20439U 90005D 15071.54083120 .00000213 00000-0 94508-4 0 9995
2 20439 098.5337 009.1939 0012037 086.5943 328.6420 14.32502239312905
LO-19
1 20442U 90005G 15071.05997097 .00000184 00000-0 83515-4 0 9995
2 20442 098.5047 008.5703 0012980 077.0325 283.2307 14.32697004313035
AO-27
1 22825U 93061C 15071.84090258 .00000186 00000-0 89832-4 0 9997
2 22825 098.6981 021.9821 0007530 226.0096 160.0872 14.29846180119171
IO-26
1 22826U 93061D 15071.84368856 .00000201 00000-0 94876-4 0 9992
2 22826 098.6925 022.1648 0008164 217.6397 142.4214 14.30159400119318
GO-32
1 25397U 98043D 15070.82081699 .00000104 00000-0 64141-4 0 9991
2 25397 098.5088 024.3744 0000358 185.4004 204.4356 14.23523811865944
NO-44
1 26931U 01043C 15071.44335661 .00000171 00000-0 97848-4 0 9994
2 26931 067.0504 066.6371 0006628 264.0349 095.9997 14.30270894701963
SO-50
1 27607U 02058C 15072.21282696 .00001008 00000-0 16520-3 0 9994
2 27607 064.5548 131.8081 0076093 307.2396 052.1779 14.74515458657130
CO-55
1 27844U 03031E 15071.51861521 .00000339 00000-0 17411-3 0 9997
2 27844 098.6979 081.4208 0009045 214.8002 298.5586 14.21733803606707
CO-57
1 27848U 03031J 15071.65143014 .00000294 00000-0 15478-3 0 9997
2 27848 098.7075 081.4082 0008851 222.0331 271.2768 14.21390348606634
AO-51
1 28375U 04025K 15071.83612536 .00000317 00000-0 10684-3 0 9997
2 28375 098.2839 015.0973 0081560 260.5448 098.6516 14.41605572562609
CP3
1 31129U 07012N 15071.89507468 .00001315 00000-0 29402-3 0 9997
2 31129 097.9700 041.9097 0095568 253.7204 134.2398 14.55570377419116
CO-65
1 32785U 08021C 15071.94655387 .00001972 00000-0 22850-3 0 9996
2 32785 097.6619 119.0150 0014142 030.1521 091.6045 14.86490775371935
PRISM
1 33493U 09002B 15072.11277834 .00005771 00000-0 56912-3 0 9997
2 33493 098.2534 264.8702 0015669 285.9921 073.9515 14.92341029332246
SOHLA-1
1 33496U 09002E 15071.82365828 .00000725 00000-0 12580-3 0 9995
2 33496 098.1968 198.9783 0007549 107.4473 045.2372 14.71235871329000
TISAT-1
1 36799U 10035E 15072.19866313 .00003257 00000-0 36227-3 0 9995
2 36799 098.0116 171.5327 0013766 158.1495 261.2824 14.87804116252681
STUDSAT
1 36801U 10035G 15071.80324644 .00025665 00000-0 16920-2 0 9996
2 36801 098.0526 186.2892 0006255 115.0363 035.9461 15.07452826253427
ALMASAT-1
1 38078U 12006B 15072.07611224 .00041506 33927-5 76802-3 0 9994
2 38078 069.4589 121.5194 0511318 029.6203 333.3109 14.70248780160867
XATCOBEO
1 38082U 12006F 14243.34478676 .13583328 43697-5 37939-3 0 9990
2 38082 069.3815 097.0364 0033293 225.1799 135.4582 16.41261006136239
CUBEBUG-1
1 39153U 13018D 15072.15579187 .00001869 00000-0 26048-3 0 9999
2 39153 098.0207 156.8075 0017120 199.5807 160.4749 14.78864032101287
ESTCUBE-1
1 39161U 13021C 15072.15743143 .00001515 00000-0 25561-3 0 9994
2 39161 098.0753 155.9293 0008434 259.4112 100.6142 14.70885460 99129
DUCHIFAT-1
1 40021U 14033M 15072.13071507 .00003624 00000-0 40664-3 0 9995
2 40021 097.9635 332.4328 0014843 134.3038 225.9378 14.87343570 39522
NANOSATCBR1
1 40024U 14033Q 15071.76003551 .00003346 00000-0 37911-3 0 9992
2 40024 097.9610 331.9260 0013668 133.8495 226.3853 14.87015496 39461
DTUSAT-2
1 40030U 14033W 15072.12236790 .00002699 00000-0 31242-3 0 9994
2 40030 097.9617 332.0427 0013868 128.0586 232.1823 14.86294614 39519
ANTELSAT
1 40034U 14033AA 15072.16489569 .00002061 00000-0 32400-3 0 9996
2 40034 097.9551 326.2825 0061873 067.6380 293.1366 14.72347151 39166
MET-2/21
1 22782U 93055A 15072.21045282 .00000001 00000-0 -12515-4 0 9992
2 22782 082.5503 319.8393 0021298 228.5890 247.2148 13.83763734 87321
OKEAN-4
1 23317U 94066A 15071.98266382 .00001724 00000-0 19215-3 0 9994
2 23317 082.5408 175.7720 0018810 289.5846 190.9054 14.86412717103029
NOAA-14
1 23455U 94089A 15071.48222716 .00000025 00000-0 35790-4 0 9990
2 23455 098.7565 154.9076 0009391 002.7144 124.9153 14.14026951 41860
NOAA-15
1 25338U 98030A 15071.79236459 .00000263 00000-0 11095-3 0 9990
2 25338 098.7706 070.3817 0011780 088.4800 271.8215 14.25578759875426
RESURS
1 25394U 98043A 15071.14765241 .00000053 00000-0 40863-4 0 9994
2 25394 098.4537 029.7908 0001415 148.8900 332.8053 14.24446147866468
FENGYUN1
1 25730U 99025A 15071.88393058 .00001291 00000-0 71409-3 0 9997
2 25730 098.9364 036.8309 0020826 064.6362 321.1570 14.13056051815450
OKEAN-0
1 25860U 99039A 15071.90944017 .00001021 00000-0 15635-3 0 9996
2 25860 098.0829 039.8730 0000930 085.1154 296.5017 14.75868977841785
NOAA-16
1 26536U 00055A 15071.72762669 .00000071 00000-0 37877-4 0 9995
2 26536 098.9534 137.7524 0011111 141.2254 219.0189 14.13080465746194
NOAA-17
1 27453U 02032A 15071.80501517 .00000135 00000-0 57789-4 0 9998
2 27453 098.3341 062.6102 0012873 103.8526 256.4575 14.24859923661008
NOAA-18
1 28654U 05018A 15071.49206534 .00000166 00000-0 11568-3 0 9993
2 28654 099.1787 061.8073 0013497 229.3692 130.6306 14.12161388505420
NOAA-19
1 33591U 09005A 15071.50669812 .00000300 00000-0 18872-3 0 9998
2 33591 098.9797 021.2096 0015146 082.8773 277.4119 14.11889156313859
HUBBLE
1 20580U 90037B 15071.68429470 .00001990 00000-0 12950-3 0 9997
2 20580 028.4703 070.2986 0002643 277.8191 082.2609 15.06967360165230
ISS
1 25544U 98067A 15072.16831369 .00014466 00000-0 21751-3 0 9992
2 25544 051.6457 203.6506 0009021 096.1002 322.1962 15.55074559933097
CO-58
1 28895U 05043F 15071.73733382 .00001191 00000-0 24303-3 0 9991
2 28895 097.8229 264.5508 0016052 240.2282 119.7324 14.62567743499492
FALCON
1 30776U 07006E 15071.85734618 .00012465 00000-0 53225-3 0 9990
2 30776 035.4276 244.0681 0001334 144.6812 355.9832 15.22137472441608
MAST
1 31126U 07012K 15071.91637909 .00000837 00000-0 19091-3 0 9992
2 31126 097.9499 044.3923 0089961 235.6960 147.7810 14.55882513419487
CAPE1
1 31130U 07012P 15071.10587796 .00001198 00000-0 27037-3 0 9996
2 31130 097.9715 040.6554 0096218 257.9840 101.0562 14.55261804418760
COMPASS
1 32787U 08021E 15071.79886333 .00003681 00000-0 38650-3 0 9992
2 32787 097.6639 122.4121 0013512 019.5199 340.6533 14.90018005372158
AAUSAT2
1 32788U 08021F 15071.79078574 .00003787 00000-0 38814-3 0 9992
2 32788 097.6646 123.7591 0012863 016.9697 343.1949 14.90977840372233
DO-64
1 32789U 08021G 15072.13538588 .00008158 00000-0 69179-3 0 9993
2 32789 097.6858 133.6233 0010430 358.0939 053.6796 14.98163042372691
CO-66
1 32791U 08021J 15071.89700812 .00002891 00000-0 31839-3 0 9999
2 32791 097.6637 120.6324 0014444 024.3051 335.8844 14.88231750371995
